{"data":{"norad_id":66325,"intl_designator":"2025-253G","name":"STARLINK-35504","alt_names":[],"object_type":"PAYLOAD","status":"ACTIVE","operator":null,"country":"US","launch_date":"2025-11-06","launch_site_code":"AFETR","launch_vehicle":null,"mission":null,"orbit_class":"UNKNOWN","rcs_meters":null,"size_class":null,"mass_kg":null,"dimensions":null,"purposes":["comms"],"wikipedia_slug":null,"has_3d_model":false,"image_url":null,"decayed_at":null,"tle_current":{"epoch":"2026-05-25T00:26:49.072128Z","epoch_age_seconds":74265,"freshness":"FRESH","line1":"1 66325U 25253G   26145.01862352  .00012034  00000+0  44591-3 0  9999","line2":"2 66325  42.9979 141.8213 0000473 223.7512 136.3302 15.27593921 31916","mean_motion":15.27593921,"eccentricity":4.73e-5,"inclination_deg":42.9979,"raan_deg":141.8213,"arg_perigee_deg":223.7512,"mean_anomaly_deg":136.3302,"bstar":0.00044591,"rev_number":3191,"period_min":94.265889658512,"perigee_km":482.68287974348,"apogee_km":483.33194400484,"semimajor_km":6861.1444118742,"source":"CELESTRAK","updated_at":"2026-05-25T13:38:21.167750Z"}}}